Location: Unspecified
(0.0000°N, 0.0000°E)
Time: 05:19:45
(UTC+02:00)

Haruka - Visible Passes

Search period start: 24 April 2014 00:00
Search period end: 04 May 2014 00:00
Orbit: 541 x 21239 km, 31.2° (Epoch: 23 April)

Date Brightness Start Highest point End Pass type
(mag) Time Alt. Az. Time Alt. Az. Time Alt. Az.
24 Apr 8.1 00:57:12 10° SW 05:23:10 67° NW 05:52:20 10° NE visible
24 Apr 8.0 18:59:57 10° WSW 19:18:10 41° S 23:56:25 10° E visible
25 Apr 7.8 02:31:18 10° SW 06:40:41 46° NW 07:00:48 10° NNE visible
25 Apr 8.6 20:11:25 10° WSW 00:31:43 42° E 01:23:02 10° ENE visible
26 Apr 7.3 04:59:10 10° WSW 07:55:14 27° NW 08:08:25 10° NNE visible
26 Apr 8.6 21:24:27 10° SW 01:37:45 63° ESE 02:39:14 10° ENE visible
27 Apr 8.4 22:39:39 10° SW 02:51:00 85° SE 03:51:23 10° NE visible
28 Apr 6.7 16:59:22 10° W 17:07:19 45° SSW 18:03:52 10° SE visible
28 Apr 8.2 23:58:20 10° SW 04:22:17 74° NW 05:01:30 10° NE visible
29 Apr 7.6 18:09:11 10° WSW 18:22:51 39° S 22:46:47 10° E visible
30 Apr 8.0 01:23:52 10° SW 05:44:26 54° NW 06:10:26 10° NE visible
30 Apr 8.3 19:20:02 10° WSW 19:47:57 40° S 00:25:54 10° ENE visible
01 May 7.6 03:08:43 10° WSW 07:01:19 34° NW 07:18:33 10° NNE visible
01 May 8.7 20:32:06 10° SW 00:48:32 53° E 01:45:32 10° ENE visible
02 May 7.2 07:42:20 10° W 08:16:20 18° NW 08:25:37 10° N visible
02 May 8.5 21:45:45 10° SW 01:53:15 76° E 02:59:11 10° ENE visible
03 May 9.3 23:01:48 10° SW 00:00:00 46° SSW 00:00:00 46° SSW visible
